Location: Unspecified
(33.6682°S, 0.0000°E)
Time: 02:55:43
(UTC+00:00)

S-56A Canister/Altair - Pass Details

Date: 25 June 2019
Orbit: 632 x 2500 km, 38.9° (Epoch: 21 July)

Event Time Altitude Azimuth Distance (km) Brightness Sun altitude
Exits shadow 05:16:21 33° 252° (WSW) 2,477 9.5 -21.9°
Maximum altitude 05:21:39 67° 179° (S) 1,986 9.4 -20.8°
Drops below altitude 10° 05:35:21 10° 97° (E) 4,966 12.7 -18.1°
Sets 05:39:40 0° 94° (E) 6,101 13.5 -17.2°
